Retour au catalogue

STARLINK-11545

ActifCommunicationsVLEO
NORAD 63016·PAYLOAD·🇺🇸 United States

Lancé Feb 15, 2025 depuis Cape Canaveral Space Force Station

Loading…

Prochains Passages (prochaines 24 heures)

TLE

FraisSource: CelesTrak SupGP

Époque: Sep 15, 2026, 03:19 UTC

1 63016C 25032M   26258.13868056  .00106720  00000+0  82854-3 0  2581
2 63016  43.0003 133.2612 0001616 275.4039 342.3944 15.70796186    10

Suivez STARLINK-11545 en temps réel avec AllMySat

Download on the App Store